Regional Weather Roundup
Issued by NWS

Home | Current Version | Previous Version | Graphics & Text | Print | Product List | Glossary On
Versions: 1 2 3 4 5 6 7 8 9 10 11 12 13 14 15 16 17 18 19 20 21 22 23 24 25 26 27 28 29 30 31 32 33 34 35 36 37 38 39 40 41 42 43 44 45 46 47 48 49 50
000
ASUS44 KMEG 181400
RWRTN
TENNESSEE HOURLY STATE WEATHER ROUNDUP
NATIONAL WEATHER SERVICE MEMPHIS TN
900 AM CDT FRI APR 18 2014

TNZ002-004-019-021-049-052-054-088>092-181500-
WEST TENNESSEE

CITY           SKY/WX    TMP DP  RH WIND       PRES   REMARKS
MEMPHIS INTL   PTSUNNY   62  47  57 CALM      30.24S
NWS MEMPHIS      N/A     63 N/A N/A MISG        N/A
JACKSON        MOSUNNY   61  51  70 SE5       30.26R
DYERSBURG      CLOUDY    57  41  54 N3        30.28R
UNION CITY     SUNNY     57  46  67 E5        30.26S
LEXINGTON      MOSUNNY   59  46  63 SE3       30.26R
$$

TNZ008-025-027-028-033-062-065-066-181500-
NORTH MIDDLE TENNESSEE

CITY           SKY/WX    TMP DP  RH WIND       PRES   REMARKS
NASHVILLE      CLOUDY    59  44  57 SE3       30.30F
CLARKSVILLE    PTSUNNY   57  45  64 SE6       30.29S
COOKEVILLE     SUNNY     57  39  51 CALM      30.31S
CROSSVILLE     CLOUDY    54  35  48 VRB5      30.34R
$$

TNZ061-075-076-078-094-096-097-181500-
SOUTH MIDDLE TENNESSEE

CITY           SKY/WX    TMP DP  RH WIND       PRES   REMARKS
TULLAHOMA      PTSUNNY   57  37  47 E3        30.31R
WINCHESTER     MOSUNNY   57  37  47 SE12      30.30R
MCMINNVILLE    PTSUNNY   57  41  54 E5        30.31S
COLUMBIA       CLOUDY    57  50  77 CALM      30.27S
$$

TNZ017-018-042-046-047-181500-
NORTHEAST TENNESSEE

CITY           SKY/WX    TMP DP  RH WIND       PRES   REMARKS
TRI CITIES     CLOUDY    50  30  46 CALM      30.37R
ELIZABETHTON   SUNNY     48  30  49 CALM      30.37R
$$

TNZ012-013-036-069-073-074-181500-
CENTRAL EAST TENNESSEE

CITY           SKY/WX    TMP DP  RH WIND       PRES   REMARKS
KNOXVILLE      CLOUDY    52  37  56 NE5       30.34S
OAK RIDGE      CLOUDY    52  41  66 CALM      30.36R
$$

TNZ083-085-099-181500-
SOUTHEAST TENNESSEE

CITY           SKY/WX    TMP DP  RH WIND       PRES   REMARKS
CHATTANOOGA    CLOUDY    56  43  61 CALM      30.33S
$$

SKY/WX REPORTED AS FAIR MEANS FEW OR NO CLOUDS BELOW
12 THOUSAND FEET.




USA.gov is the U.S. government's official web portal to all federal, state and local government web resources and services.